Weather History for Shannon, Ireland

Change the Weather History Date:

Tuesday, March 13, 2012

  Actual Average Record
Temperature  
Mean Temperature 49 °F -  
Max Temperature 54 °F 53 °F 59 °F (1997)
Min Temperature 44 °F 39 °F 26 °F (2011)
Degree Days  
Heating Degree Days 16    
Moisture  
Dew Point 44 °F    
Average Humidity 84    
Maximum Humidity 93    
Minimum Humidity 70    
Precipitation  
Precipitation 0.00 in 0.08 in - ()
Sea Level Pressure  
Sea Level Pressure 30.51 in    
Wind  
Wind Speed 7 mph ()    
Max Wind Speed 13 mph    
Max Gust Speed -    
Visibility 6.7 miles    
Events Rain    
Averages and records for this station are not official NWS values.
T = Trace of Precipitation, MM = Missing Value Source: Averaged Metar Reports

Daily Weather History Graph

Daily Weather History Graph

Search for Another Location

Airport:

Trip Planner

Search our weather history database for the weather conditions in past years. The results will help you decide how hot, cold, wet, or windy it might be!

Date:

Astronomy

Mar. 13, 2012 Rise Set
Actual Time 6:53 AM GMT 6:37 PM GMT
Civil Twilight 6:19 AM GMT 7:11 PM GMT
Nautical Twilight 5:40 AM GMT 7:51 PM GMT
Astronomical Twilight 4:58 AM GMT 8:32 PM GMT
Moon 12:44 AM GMT (3/13) 9:02 AM GMT (3/13)
Length of Visible Light 12h 51m
Length of Day
11h 43m
Waning Gibbous, 67% of the Moon is Illuminated
Mar 13
Waning Gibbous
Mar 15
Last Quarter
Mar 22
New
Mar 30
First Quarter
Apr 6
Full

Hourly Weather History & Observations

Time (GMT) Temp. Windchill Dew Point Humidity Pressure Visibility Wind Dir Wind Speed Gust Speed Precip Events Conditions
12:00 AM 46 °F - 43 °F 85% 30.54 in 12 mi South 8.9 mph - - Rain Light Drizzle
12:00 AM 46.4 °F 42.4 °F 42.8 °F 87% 30.54 in 6.2 mi South 8.1 mph - N/A   Overcast
12:30 AM 48.2 °F - 42.8 °F 82% 30.54 in 6.2 mi SE 9.2 mph - N/A   Overcast
1:00 AM 46.4 °F 44.3 °F 42.8 °F 87% 30.54 in 6.2 mi South 4.6 mph - N/A   Overcast
1:30 AM 46.4 °F 43.5 °F 42.8 °F 87% 30.54 in 6.2 mi SSE 5.8 mph - N/A   Overcast
2:00 AM 46.4 °F 42.9 °F 42.8 °F 87% 30.54 in 6.2 mi SSE 6.9 mph - N/A   Overcast
2:30 AM 44.6 °F 40.2 °F 42.8 °F 93% 30.54 in 6.2 mi SE 8.1 mph - N/A   Light Drizzle
3:00 AM 44.6 °F 40.7 °F 42.8 °F 93% 30.51 in 6.2 mi SE 6.9 mph - N/A   Light Drizzle
3:30 AM 44.6 °F 40.7 °F 42.8 °F 93% 30.51 in 6.2 mi SSE 6.9 mph - N/A   Light Drizzle
4:00 AM 44.6 °F 40.7 °F 42.8 °F 93% 30.51 in 6.2 mi South 6.9 mph - N/A   Light Drizzle
4:30 AM 44.6 °F 40.2 °F 42.8 °F 93% 30.51 in 6.2 mi SSE 8.1 mph - N/A   Light Drizzle
5:00 AM 44.6 °F 41.4 °F 42.8 °F 93% 30.51 in 6.2 mi South 5.8 mph - N/A   Light Drizzle
5:30 AM 44.6 °F 40.7 °F 42.8 °F 93% 30.51 in 6.2 mi South 6.9 mph - N/A   Overcast
6:00 AM 45 °F - 42 °F 86% 30.53 in 9 mi SE 8.9 mph - - Rain Light Drizzle
6:00 AM 44.6 °F 39.7 °F 42.8 °F 93% 30.51 in 6.2 mi SE 9.2 mph - N/A   Light Drizzle
6:30 AM 44.6 °F 40.2 °F 42.8 °F 93% 30.51 in 6.2 mi SSE 8.1 mph - N/A   Light Drizzle
7:00 AM 44.6 °F 41.4 °F 42.8 °F 93% 30.54 in 6.2 mi SSE 5.8 mph - N/A   Light Drizzle
7:30 AM 44.6 °F 41.4 °F 42.8 °F 93% 30.54 in 6.2 mi SE 5.8 mph - N/A   Overcast
8:00 AM 44.6 °F 40.7 °F 42.8 °F 93% 30.54 in 6.2 mi SE 6.9 mph - N/A   Overcast
8:30 AM 44.6 °F 40.7 °F 42.8 °F 93% 30.54 in 6.2 mi ESE 6.9 mph - N/A   Overcast
9:00 AM 44.6 °F 40.7 °F 42.8 °F 93% 30.54 in 6.2 mi ESE 6.9 mph - N/A   Overcast
9:30 AM 46.4 °F 42.9 °F 42.8 °F 87% 30.54 in 6.2 mi ESE 6.9 mph - N/A   Overcast
10:00 AM 46.4 °F 41.9 °F 42.8 °F 87% 30.54 in 6.2 mi ESE 9.2 mph - N/A   Overcast
10:30 AM 48.2 °F - 42.8 °F 82% 30.54 in 6.2 mi ESE 10.4 mph - N/A   Mostly Cloudy
11:00 AM 48.2 °F - 44.6 °F 87% 30.54 in 6.2 mi ESE 10.4 mph - N/A   Mostly Cloudy
11:30 AM 50.0 °F - 44.6 °F 82% 30.54 in 6.2 mi ESE 10.4 mph - N/A   Mostly Cloudy
12:00 PM 51 °F - 44 °F 70% 30.54 in 16 mi ESE 8.9 mph - -   Partly Cloudy
12:00 PM 51.8 °F - 44.6 °F 76% 30.54 in 6.2 mi ESE 8.1 mph - N/A   Partly Cloudy
12:30 PM 51.8 °F - 44.6 °F 76% 30.54 in 6.2 mi ESE 6.9 mph - N/A   Partly Cloudy
1:00 PM 51.8 °F - 44.6 °F 76% 30.51 in 6.2 mi ESE 6.9 mph - N/A   Mostly Cloudy
1:30 PM 53.6 °F - 44.6 °F 72% 30.51 in 6.2 mi ESE 8.1 mph - N/A   Mostly Cloudy
2:00 PM 53.6 °F - 44.6 °F 72% 30.51 in 6.2 mi East 6.9 mph - N/A   Mostly Cloudy
2:30 PM 53.6 °F - 44.6 °F 72% 30.51 in 6.2 mi ESE 6.9 mph - N/A   Overcast
3:00 PM 53.6 °F - 44.6 °F 72% 30.51 in 6.2 mi SE 5.8 mph - N/A   Mostly Cloudy
3:30 PM 53.6 °F - 44.6 °F 72% 30.48 in 6.2 mi SSE 4.6 mph - N/A   Mostly Cloudy
4:00 PM 53.6 °F - 46.4 °F 77% 30.48 in 6.2 mi ESE 6.9 mph - N/A   Mostly Cloudy
4:30 PM 53.6 °F - 46.4 °F 77% 30.48 in 6.2 mi SSE 5.8 mph - N/A   Mostly Cloudy
5:00 PM 53.6 °F - 44.6 °F 72% 30.48 in 6.2 mi ESE 6.9 mph - N/A   Mostly Cloudy
5:30 PM 53.6 °F - 46.4 °F 77% 30.48 in 6.2 mi SE 9.2 mph - N/A   Mostly Cloudy
6:00 PM 52 °F - 46 °F 73% 30.49 in 12 mi ESE 8.9 mph - -   Mostly Cloudy
6:00 PM 51.8 °F - 46.4 °F 82% 30.48 in 6.2 mi ESE 8.1 mph - N/A   Mostly Cloudy
6:30 PM 51.8 °F - 44.6 °F 76% 30.48 in 6.2 mi ESE 8.1 mph - N/A   Mostly Cloudy
7:00 PM 50.0 °F - 44.6 °F 82% 30.48 in 6.2 mi ESE 8.1 mph - N/A   Mostly Cloudy
7:30 PM 50.0 °F - 44.6 °F 82% 30.48 in 6.2 mi SE 8.1 mph - N/A   Mostly Cloudy
8:00 PM 50.0 °F - 44.6 °F 82% 30.48 in 6.2 mi ESE 8.1 mph - N/A   Mostly Cloudy
8:30 PM 48.2 °F - 44.6 °F 87% 30.48 in 6.2 mi SE 8.1 mph - N/A   Mostly Cloudy
9:00 PM 48.2 °F - 44.6 °F 87% 30.48 in 6.2 mi East 5.8 mph - N/A   Overcast
9:30 PM 48.2 °F - 44.6 °F 87% 30.48 in 6.2 mi SE 9.2 mph - N/A   Mostly Cloudy
10:00 PM 48.2 °F - 44.6 °F 87% 30.48 in 6.2 mi SSE 6.9 mph - N/A   Overcast
10:30 PM 48.2 °F - 44.6 °F 87% 30.45 in - SE 6.9 mph - N/A   Overcast
11:00 PM 48.2 °F - 44.6 °F 87% 30.45 in 6.2 mi SSE 8.1 mph - N/A   Overcast
11:30 PM 48.2 °F - 42.8 °F 82% 30.45 in 6.2 mi SSE 12.7 mph - N/A   Overcast